Regional Weather Roundup
Issued by NWS

Home | Current Version | Previous Version | Graphics & Text | Print | Product List | Glossary On
Versions: 1 2 3 4 5 6 7 8 9 10 11 12 13 14 15 16 17 18 19 20 21 22 23 24 25 26 27 28 29 30 31 32 33 34 35 36 37 38 39 40 41 42 43 44 45 46 47 48 49 50
000
ASUS43 KMPX 042310
RWRMN
WEATHER ROUNDUP FOR MINNESOTA
NATIONAL WEATHER SERVICE TWIN CITIES/CHANHASSEN MN
600 PM CDT TUE AUG 04 2015


NOTE: "FAIR" INDICATES FEW OR NO CLOUDS BELOW 12,000 FEET WITH NO
SIGNIFICANT WEATHER AND/OR OBSTRUCTIONS TO VISIBILITY. N/A MEANS
CURRENT SKY AND/OR WEATHER CONDITIONS ARE NOT AVAILABLE.

MNZ060>063-068>070-050000-
   Twin Cities Metro

CITY           SKY/WX    TMP DP  RH WIND       PRES   REMARKS
TWIN CITIES    MOSUNNY   81  50  33 W9        29.97S
ST PAUL        MOSUNNY   78  51  38 NW10      29.96F
CRYSTAL        PTSUNNY   81  50  33 W9        29.95F
BLAINE         MOSUNNY   81  52  36 NW9       29.96F
LAKEVILLE      SUNNY     77  54  44 W7        29.98S
EDEN PRAIRIE   MOSUNNY   80  52  37 W9        29.97S
SOUTH ST PAUL  MOSUNNY   81  49  32 NW6       29.96S
LAKE ELMO      FAIR      77  55  47 NW5       29.98S
$$
MNZ001>005-007-008-013>017-022>024-027-028-050000-
   Northwest Minnesota

CITY           SKY/WX    TMP DP  RH WIND       PRES   REMARKS
BEMIDJI        SUNNY     73  51  46 N8        30.01S
HALLOCK        SUNNY     73  52  46 N3        30.01S
ROSEAU         SUNNY     70  59  68 E7        30.02S
WARROAD        SUNNY     66  54  63 E7        30.04S
THIEF RVR FALL SUNNY     73  50  43 CALM      30.01S
CROOKSTON      SUNNY     75  52  43 NE6       30.00S
FOSSTON        SUNNY     79  50  36 N7        30.01S
DETROIT LAKES  SUNNY     75  50  41 NW7       30.02S
MOORHEAD       SUNNY     75  54  46 NE7       30.00S
PARK RAPIDS    MOSUNNY   77  50  38 N9        30.01R
MAHNOMEN       FAIR      73  55  52 NE5       30.01R
$$
MNZ006-009>011-018-025>026-050000-
   North Central Minnesota

CITY           SKY/WX    TMP DP  RH WIND       PRES   REMARKS
BAUDETTE       SUNNY     68  52  56 NW9       30.02F
FLAG ISLAND    SUNNY     66  48  52 CALM      30.02S
INTL FALLS     CLOUDY    65  49  56 NE6       30.03S
WASKISH        SUNNY     72  52  49 N6        30.03R
BIG FORK       MOSUNNY   68  52  56 CALM      30.02S
LONGVILLE      SUNNY     73  48  40 NW7       30.01S
GRAND RAPIDS   SUNNY     72  48  43 N10       30.01R
CRANE LAKE     PTSUNNY   63  48  59 N3        30.05R
ORR            MOSUNNY   64  46  52 CALM      30.01S
COOK           SUNNY     64  50  59 N3        30.03S
WALKER         FAIR      71  52  50 NE7       30.01R
$$
MNZ012-019>021-037-050000-
   Northeast Minnesota

CITY           SKY/WX    TMP DP  RH WIND       PRES   REMARKS
DULUTH         MOSUNNY   73  50  44 N9        29.99R
ELY            CLOUDY    63  48  59 NW5       30.03R
HIBBING        PTSUNNY   70  50  49 N12       30.00S
EVELETH        MOSUNNY   68  50  52 N7        30.02R
DULUTH HARBOR  MOSUNNY   61  54  77 N6        29.99R
TWO HARBORS    PTSUNNY   70  55  60 E6        29.98R
SILVER BAY     MOSUNNY   70  52  52 CALM      29.99R
GRAND MARAIS     N/A     55  49  80 VRB3      30.00R
G MARAIS ARPRT CLOUDY    59  46  63 N9        30.03S
$$
MNZ029>031-032-039>041-046>048-054>057-064-050000-
   West Central Minnesota

CITY           SKY/WX    TMP DP  RH WIND       PRES   REMARKS
FERGUS FALLS   SUNNY     79  50  36 N3        29.98S
WHEATON        SUNNY     75  48  38 CALM      30.01S
MORRIS         SUNNY     81  52  36 N3        29.99S
ALEXANDRIA     SUNNY     79  49  34 N5        30.02R
ELBOW LAKE     FAIR      77  50  38 CALM      30.00S
WADENA         SUNNY     77  48  36 N6        30.00S
GLENWOOD       SUNNY     79  50  36 W6        30.02R
APPLETON       SUNNY     81  45  28 N3        29.99S
BENSON         SUNNY     81  45  28 CALM      29.99F
ORTONVILLE     SUNNY     81  52  36 CALM      29.99F
MADISON        SUNNY     79  54  41 CALM      30.00R
WILLMAR        FAIR      79  54  41 W7        30.01S
$$
MNZ033>034-036-042>043-049>051-058-059-050000-
   Central Minnesota

CITY           SKY/WX    TMP DP  RH WIND       PRES   REMARKS
ST CLOUD       MOSUNNY   80  50  34 VRB7      29.98S
SAUK CENTRE    FAIR      77  50  38 W3        30.00R
PAYNESVILLE    SUNNY     76  48  37 W5        30.00S
AITKIN         SUNNY     75  52  43 N7        29.98S
PINE RIVER     SUNNY     73  55  53 NE6       30.03R
BRAINERD       SUNNY     77  51  40 N9        29.99S
STAPLES        PTSUNNY   79  46  31 NW6       29.99S
LONG PRAIRIE   FAIR      77  48  36 W7        30.01R
LITCHFIELD     SUNNY     79  50  36 NW5       30.00S
BUFFALO        MOSUNNY   78  49  35 W8        29.99S
MAPLE LAKE     MOSUNNY   81  55  41 W6        29.99S
$$
MNZ037-044-045-052-053-050000-
   East Central Minnesota

CITY           SKY/WX    TMP DP  RH WIND       PRES   REMARKS
PRINCETON      SUNNY     81  52  36 NW8       29.98R
MORA           SUNNY     75  50  41 NW7       29.99S
CAMBRIDGE      SUNNY     81  57  44 N6        29.96S
RUSH CITY      SUNNY     76  53  43 NW7       29.98S
MOOSE LAKE     PTSUNNY   75  52  43 NW6       29.97R
HINCKLEY       MOCLDY    75  55  50 NW5       29.98R
CLOQUET        PTSUNNY   73  46  38 N8        29.99R
MCGREGOR       MOSUNNY   73  52  46 N10       29.99S
$$
MNZ071>073-080-081-089-090-097-098-050000-
   Southwest Minnesota

CITY           SKY/WX    TMP DP  RH WIND       PRES   REMARKS
MONTEVIDEO     SUNNY     84  54  34 E5        30.01S
GRANITE FALLS  MOSUNNY   78  55  43 CALM      30.01S
CANBY          MOSUNNY   79  53  40 NE5       30.01S
MARSHALL       MOSUNNY   79  54  41 CALM      30.01F
REDWOOD FALLS  MOSUNNY   81  50  33 VRB6      29.99S
OLIVIA         MOSUNNY   75  50  41 NW3       30.00S
PIPESTONE      PTSUNNY   77  57  50 E5        30.01S
WINDOM         PTSUNNY   77  52  41 CALM      30.01S
WORTHINGTON    PTSUNNY   77  57  50 E5        30.01S
JACKSON        PTSUNNY   77  54  44 E5        30.02S
TRACY          PTSUNNY   77  59  53 NE5       30.01S
SLAYTON        PTSUNNY   76  55  48 CALM      30.03R
$$
MNZ065>067-074>077-082>085-091>093-050000-
   South Central Minnesota

CITY           SKY/WX    TMP DP  RH WIND       PRES   REMARKS
MANKATO        MOSUNNY   77  48  36 W7        30.00S
NEW ULM        MOSUNNY   77  46  33 CALM      30.00R
ST JAMES       PTSUNNY   79  54  41 CALM      30.01S
FAIRMONT       MOSUNNY   75  48  38 CALM      30.01R
GLENCOE        MOSUNNY   79  52  39 W7        29.99S
FARIBAULT      MOSUNNY   75  54  46 W5        30.00S
OWATONNA       MOSUNNY   77  50  38 NW6       30.00S
WASECA         MOSUNNY   77  52  41 CALM      30.02R
ALBERT LEA     MOSUNNY   75  48  38 N3        30.01R
$$
MNZ078>079-086>088-094>096-050000-
   Southeast Minnesota

CITY           SKY/WX    TMP DP  RH WIND       PRES   REMARKS
ROCHESTER      MOSUNNY   74  53  48 NW8       30.01R
RED WING       MOSUNNY   81  48  32 NW3       29.95F
STANTON        MOSUNNY   78  54  43 W5        29.97S
DODGE CENTER   MOSUNNY   75  50  41 NW3       30.01R
WINONA         MOSUNNY   79  54  41 N5        29.97S
AUSTIN         MOSUNNY   75  52  43 N5        30.00R
PRESTON        MOSUNNY   74  54  48 NW6       30.01R
$$
ABBREVIATIONS USED IN REMARKS
   TC - TEMPERATURES IN CELSIUS
  WCI - WIND CHILL INDEX
   HX - HEAT INDEX
  VSB - VISIBILITY
$$



USA.gov is the U.S. government's official web portal to all federal, state and local government web resources and services.